Find OneWeb SL0671

NORAD ID: 55830 Int'l Des: 2023-029 Owner: ONEWEBN Country: UK Constellation: oneweb operational
LEOCIRCULARPOLARONEWEB_TYPE

当前视图

正在加载3D地球...

About OneWeb SL0671

OneWeb SL0671 (NORAD 55830) is a oneweb constellation satellite launched Mar 9, 2023 by ONEWEBN of UK. It operates in LEO, CIRCULAR, POLAR, ONEWEB_TYPE orbit with a mass of 148.00 kg.

关于 OneWeb SL0671

正在加载描述...

即将过境

Passes for default location (London). Set your location on the main map for personalized predictions.

高度历史

Loading altitude history...

两行轨道根数

1 55830U 23029AL 26194.82682985 .00000000 00000-0 -32010-4 0 9998
2 55830 87.9193 299.6696 0001938 103.7160 256.4188 13.19726302162418
Epoch: Jul 13, 2026 • Age: 10 hours

当前状态

高度 1187.3 km
远地点 / 近地点 N/A
速度 7.26 km/s
星下点 15.14°N, 100.3°E
发射日期 Mar 9, 2023
运行时间 3.3 years
类型 internet

技术详情

分类 Payload
质量 148.00 kg
干质量 140.00 kg
总质量 148.00 kg
长度 1.30 m
直径 1.00 m
跨度 5.00 m
形状 Trapezoid+2 pan
制造商 ONEWUS
平台类型 ARROW
阶段状态 In Orbit
所有者/国家 ONEWEBN/UK

Most Searched